Regional Weather Roundup
Issued by NWS

Home | Current Version | Previous Version | Text Only | Print | Product List | Glossary On
Versions: 1 2 3 4 5 6 7 8 9 10 11 12 13 14 15 16 17 18 19 20 21 22 23 24 25 26 27 28 29 30 31 32 33 34 35 36 37 38 39 40 41 42 43 44 45 46 47 48 49 50
000
ASUS43 KDMX 240006
RWRIA

WEATHER ROUNDUP FOR IOWA
NATIONAL WEATHER SERVICE DES MOINES IA
600 PM CST FRI FEB 23 2018

NOTE: "FAIR" INDICATES FEW OR NO CLOUDS BELOW 12,000 FEET WITH NO
SIGNIFICANT WEATHER AND/OR OBSTRUCTIONS TO VISIBILITY.

* - THESE STATIONS ARE NOT NWS STATIONS...THUS NOT UNDER NWS
QUALITY CONTROL.  THEY ALSO DO NOT REPORT WEATHER SUCH
AS PRECIPITATION OR FOG.

IAZ001>003-012>014-020>022-031>034-043>046-240100-
   NORTHWEST IOWA

CITY           SKY/WX    TMP DP  RH WIND       PRES   REMARKS
CARROLL *      CLOUDY    21  19  93 N12       30.30R WCI   9
CHEROKEE *     CLOUDY    23  21  94 NW5       30.31R WCI  16
DENISON *      CLOUDY    21  21 100 N10       30.30S WCI  10
LE MARS *      CLOUDY    19  18  93 NW7       30.31S WCI  10
ORANGE CITY *  CLOUDY    19  19 100 NW7       30.29S WCI  10
SHELDON *      CLOUDY    21  19  93 NW9       30.28R WCI  11
SIOUX CITY     CLOUDY    21  18  88 N8        30.32S WCI  11
6HR MIN TEMP:  20; 6HR MAX TEMP:  23;

SPENCER        CLOUDY    24  20  84 NW12      30.29R WCI  13
6HR MIN TEMP:  22; 6HR MAX TEMP:  25;

STORM LAKE *   MOCLDY    21  19  93 NW7G13    30.29R WCI  13
$$

IAZ055>058-069>071-079>083-090>094-240100-
   SOUTHWEST IOWA

CITY           SKY/WX    TMP DP  RH WIND       PRES   REMARKS
ATLANTIC *     MOCLDY    27  25  93 N14       30.26F WCI  15
AUDUBON *      CLOUDY    25  21  86 NW5       30.28S WCI  19
CLARINDA *     MOCLDY    32  30  93 N9        30.28S WCI  24
COUNCIL BLFS * CLOUDY    25  25 100 N14       30.25F WCI  13
CRESTON *      CLOUDY    32  28  86 N10       30.25S WCI  24
HARLAN  *      CLOUDY    23  23 100 N12       30.31F WCI  12
LAMONI         PTCLDY    34  28  79 NE5       30.23F WCI  30
6HR MIN TEMP:  34; 6HR MAX TEMP:  38;

RED OAK *      MOCLDY    28  25  86 N9G15     30.27S WCI  20
SHENANDOAH *   PTCLDY    30  27  86 N8        30.28S WCI  23
$$

IAZ047>049-059>061-072>074-084-240100-
   CENTRAL IOWA

CITY           SKY/WX    TMP DP  RH WIND       PRES   REMARKS
AMES           CLOUDY    26  22  84 NW8       30.29S WCI  18
6HR MIN TEMP:  25; 6HR MAX TEMP:  31;

ANKENY *       CLOUDY    27  25  93 N9        30.30S WCI  17
BOONE *        CLOUDY    25  23  93 MISG      30.28S
CHARITON *     CLEAR     34  28  80 N7        30.25S WCI  28
DES MOINES     MOCLDY    28  23  81 N10       30.28R WCI  19
6HR MIN TEMP:  28; 6HR MAX TEMP:  36;

GRINNELL*      PTCLDY    28  26  89 NW9       30.28S WCI  20
KNOXVILLE *    CLOUDY    30  27  86 N12       30.25S WCI  21
MARSHALLTOWN   MOCLDY    26  23  88 NW13      30.28R WCI  15
6HR MIN TEMP:  26; 6HR MAX TEMP:  32;

NEWTON *       MOCLDY    27  25  93 N8        30.28S WCI  18
PELLA *        CLOUDY    30  26  84 N9        30.29S WCI  21
PERRY *        CLOUDY    26  24  93 N10       30.30S WCI  16
$$

IAZ004>006-015-016-023>025-035-036-240100-
   NORTH CENTRAL IOWA

CITY           SKY/WX    TMP DP  RH WIND       PRES   REMARKS
ALGONA *       PTCLDY    16 N/A N/A W7        30.29S WCI   6
CLARION *      CLOUDY    23  23 100 NW13      30.30S WCI  11
ESTHERVILLE    PTCLDY    19  16  88 W12       30.28R WCI   7
6HR MIN TEMP:  19; 6HR MAX TEMP:  25;

FORT DODGE *   CLOUDY    21  18  88 NW8       30.30S WCI  11
MASON CITY     CLEAR     22  18  85 W9        30.29R WCI  12
6HR MIN TEMP:  22; 6HR MAX TEMP:  27;

FOREST CITY *  FAIR      23  21  93 W3        30.29R
WEBSTER CITY * CLOUDY    23  19  86 NW12      30.28S WCI  12
IOWA FALLS *   CLOUDY    26  23  88 W13       30.30R WCI  15
$$

IAZ007>011-017>019-026>030-037>042-050>054-066-240100-
   NORTHEAST IOWA

CITY           SKY/WX    TMP DP  RH WIND       PRES   REMARKS
CEDAR RAPIDS   FAIR      30  25  81 NW9       30.26S WCI  22
6HR MIN TEMP:  30; 6HR MAX TEMP:  38;

CHARLES CITY * FAIR      25  25 100 W8        30.29R WCI  16
CLINTON *      FAIR      32  29  88 NW10      30.27R WCI  24
DECORAH *      FAIR      27  23  86 NW7       30.25R WCI  19
DUBUQUE        FAIR      30  24  78 W9        30.25R WCI  22
6HR MIN TEMP:  30; 6HR MAX TEMP:  34;

MONTICELLO *   FAIR      32  27  80 NW8       30.27R WCI  25
OELWEIN *      FAIR      28  28 100 NW14      30.27S WCI  17
WATERLOO       FAIR      27  23  85 NW9       30.28S WCI  18
6HR MIN TEMP:  27; 6HR MAX TEMP:  32;

$$

IAZ064-065-067-068-078-240100-
   EAST CENTRAL IOWA

CITY           SKY/WX    TMP DP  RH WIND       PRES   REMARKS
DAVENPORT      FAIR      34  28  79 MISG      30.27S
6HR MIN TEMP:  34; 6HR MAX TEMP:  40;

IOWA CITY      FAIR      33  25  72 NW8       30.29R WCI  26
6HR MIN TEMP:  33; 6HR MAX TEMP:  40;

MT. PLEASANT * MOCLDY    34  30  86 N6        30.27S WCI  29
MUSCATINE *    CLOUDY    36  30  80 NW6       30.28R WCI  31
QUAD CITIES    FAIR      36  29  75 NW7       30.26R WCI  30
6HR MIN TEMP:  36; 6HR MAX TEMP:  42;

$$

IAZ062-063-075>077-085>089-095>099-240100-
   SOUTHEAST IOWA

CITY           SKY/WX    TMP DP  RH WIND       PRES   REMARKS
BURLINGTON     MOCLDY    37  30  75 N9        30.26R WCI  30
6HR MIN TEMP:  36; 6HR MAX TEMP:  40;

FAIRFIELD *    PTCLDY    34  28  80 N7        30.26S WCI  28
FORT MADISON * MOCLDY    36  32  87 CALM      30.27S
KEOKUK *       CLOUDY    37  32  81 CALM      30.27R
OSKALOOSA *    FAIR      32  28  86 N9        30.27S WCI  24
OTTUMWA        PTCLDY    33  28  81 N8        30.25F WCI  26
6HR MIN TEMP:  33; 6HR MAX TEMP:  40;

WASHINGTON *   PTCLDY    34  32  93 NW8       30.28S WCI  27
$$

ABBREVIATIONS USED IN REMARKS
   TC - TEMPERATURES IN CELSIUS
  WCI - WIND CHILL INDEX
   HX - HEAT INDEX
  VSB - VISIBILITY
$$





USA.gov is the U.S. government's official web portal to all federal, state and local government web resources and services.